Weather History for Great Bend, KS

Change the Weather History Date:

Thursday, September 19, 2013

  Actual Average Record
Temperature  
Mean Temperature 73 °F -  
Max Temperature 82 °F 83 °F 100 °F (1980)
Min Temperature 64 °F 57 °F 35 °F (2003)
Cooling Degree Days 8    
Growing Degree Days 23 (Base 50)    
Moisture  
Dew Point 60 °F    
Average Humidity 60    
Maximum Humidity 69    
Minimum Humidity 51    
Precipitation  
Precipitation 0.00 in - - ()
Sea Level Pressure  
Sea Level Pressure 29.88 in    
Wind  
Wind Speed 16 mph (West)    
Max Wind Speed 21 mph    
Max Gust Speed 28 mph    
Visibility 10 miles    
Events      
Averages and records for this station are not official NWS values.
T = Trace of Precipitation, MM = Missing Value Source: NWS Daily Summary

Daily Weather History Graph

Daily Weather History Graph

Search for Another Location

Airport:

Trip Planner

Search our weather history database for the weather conditions in past years. The results will help you decide how hot, cold, wet, or windy it might be!

Date:

Astronomy

Sep. 19, 2013 Rise Set
Actual Time 7:20 AM CDT 7:36 PM CDT
Civil Twilight 6:54 AM CDT 8:03 PM CDT
Nautical Twilight 6:23 AM CDT 8:34 PM CDT
Astronomical Twilight 5:51 AM CDT 9:05 PM CDT
Moon 7:37 PM CDT (9/19) 7:30 AM CDT (9/19)
Length of Visible Light 13h 08m
Length of Day
12h 15m
Full, 100% of the Moon is Illuminated
Sep 19
Full
Sep 26
Last Quarter
Oct 4
New
Oct 11
First Quarter
Oct 18
Full

Hourly Weather History & Observations

Time (CDT) Temp. Heat Index Dew Point Humidity Pressure Visibility Wind Dir Wind Speed Gust Speed Precip Events Conditions
12:15 AM 78.8 °F - 60.8 °F 54% 29.80 in 10.0 mi South 19.6 mph 26.5 mph N/A   Clear
12:35 AM 77.0 °F - 59.0 °F 54% 29.80 in 10.0 mi South 18.4 mph 27.6 mph N/A   Clear
12:55 AM 77.0 °F - 59.0 °F 54% 29.80 in 10.0 mi South 19.6 mph - N/A   Clear
1:15 AM 77.0 °F - 59.0 °F 54% 29.80 in 10.0 mi South 20.7 mph 27.6 mph N/A   Clear
1:35 AM 77.0 °F - 59.0 °F 54% 29.80 in 10.0 mi South 19.6 mph 25.3 mph N/A   Clear
1:55 AM 77.0 °F - 59.0 °F 54% 29.80 in 10.0 mi South 19.6 mph 27.6 mph N/A   Clear
2:15 AM 75.2 °F - 59.0 °F 57% 29.81 in 10.0 mi South 16.1 mph 24.2 mph N/A   Clear
2:35 AM 75.2 °F - 59.0 °F 57% 29.80 in 10.0 mi South 16.1 mph 21.9 mph N/A   Clear
2:55 AM 75.2 °F - 59.0 °F 57% 29.81 in 10.0 mi South 18.4 mph 21.9 mph N/A   Clear
3:15 AM 75.2 °F - 59.0 °F 57% 29.80 in 10.0 mi South 17.3 mph - N/A   Clear
3:35 AM 75.2 °F - 59.0 °F 57% 29.80 in 10.0 mi South 18.4 mph - N/A   Clear
3:55 AM 75.2 °F - 59.0 °F 57% 29.80 in 10.0 mi South 17.3 mph 23.0 mph N/A   Clear
4:15 AM 75.2 °F - 59.0 °F 57% 29.80 in 10.0 mi South 16.1 mph - N/A   Clear
4:35 AM 73.4 °F - 59.0 °F 61% 29.80 in 10.0 mi South 16.1 mph - N/A   Clear
4:55 AM 73.4 °F - 60.8 °F 65% 29.80 in 10.0 mi South 15.0 mph 20.7 mph N/A   Clear
5:15 AM 73.4 °F - 60.8 °F 65% 29.80 in 10.0 mi South 16.1 mph - N/A   Clear
5:35 AM 71.6 °F - 60.8 °F 69% 29.79 in 10.0 mi South 13.8 mph - N/A   Clear
5:55 AM 71.6 °F - 60.8 °F 69% 29.79 in 10.0 mi South 13.8 mph - N/A   Clear
6:15 AM 71.6 °F - 60.8 °F 69% 29.79 in 10.0 mi South 15.0 mph 19.6 mph N/A   Clear
6:35 AM 73.4 °F - 60.8 °F 65% 29.79 in 10.0 mi South 16.1 mph - N/A   Clear
6:55 AM 73.4 °F - 60.8 °F 65% 29.79 in 10.0 mi South 20.7 mph 25.3 mph N/A   Clear
7:15 AM 73.4 °F - 60.8 °F 65% 29.80 in 10.0 mi South 16.1 mph 24.2 mph N/A   Clear
7:35 AM 71.6 °F - 60.8 °F 69% 29.80 in 10.0 mi South 13.8 mph - N/A   Clear
7:55 AM 71.6 °F - 60.8 °F 69% 29.80 in 10.0 mi South 15.0 mph - N/A   Clear
8:15 AM 73.4 °F - 60.8 °F 65% 29.81 in 10.0 mi SSW 16.1 mph - N/A   Clear
8:35 AM 73.4 °F - 60.8 °F 65% 29.81 in 10.0 mi SSW 15.0 mph - N/A   Clear
8:55 AM 73.4 °F - 62.6 °F 69% 29.82 in 10.0 mi SSW 17.3 mph - N/A   Clear
9:15 AM 75.2 °F - 62.6 °F 65% 29.82 in 10.0 mi SSW 15.0 mph 21.9 mph N/A   Clear
9:35 AM 77.0 °F - 62.6 °F 61% 29.82 in 10.0 mi SSW 15.0 mph 24.2 mph N/A   Clear
9:55 AM 78.8 °F - 62.6 °F 57% 29.83 in 10.0 mi SW 17.3 mph 25.3 mph N/A   Clear
10:15 AM 78.8 °F - 62.6 °F 57% 29.83 in 10.0 mi WSW 18.4 mph 24.2 mph N/A   Clear
10:35 AM 78.8 °F - 62.6 °F 57% 29.85 in 10.0 mi WSW 19.6 mph 25.3 mph N/A   Clear
10:55 AM 78.8 °F - 62.6 °F 57% 29.85 in 10.0 mi West 17.3 mph 25.3 mph N/A   Clear
11:15 AM 78.8 °F - 62.6 °F 57% 29.86 in 10.0 mi WSW 19.6 mph 25.3 mph N/A   Clear
11:35 AM 75.2 °F - 60.8 °F 61% 29.87 in 10.0 mi West 20.7 mph 27.6 mph N/A   Clear
11:55 AM 75.2 °F - 60.8 °F 61% 29.88 in 10.0 mi West 16.1 mph 21.9 mph N/A   Clear
12:15 PM 77.0 °F - 62.6 °F 61% 29.89 in 10.0 mi West 15.0 mph 20.7 mph N/A   Partly Cloudy
12:35 PM 75.2 °F - 62.6 °F 65% 29.89 in 10.0 mi West 12.7 mph - N/A   Partly Cloudy
12:55 PM 77.0 °F - 62.6 °F 61% 29.88 in 10.0 mi WNW 12.7 mph 18.4 mph N/A   Partly Cloudy
1:15 PM 78.8 °F - 62.6 °F 57% 29.87 in 10.0 mi NNW 12.7 mph - N/A   Clear
1:35 PM 80.6 °F 81.8 °F 62.6 °F 54% 29.86 in 10.0 mi North 15.0 mph 18.4 mph N/A   Clear
1:55 PM 80.6 °F 81.8 °F 62.6 °F 54% 29.87 in 10.0 mi NNW 15.0 mph 20.7 mph N/A   Clear
2:15 PM 80.6 °F 81.8 °F 62.6 °F 54% 29.86 in 10.0 mi North 12.7 mph 21.9 mph N/A   Clear
2:35 PM 80.6 °F 81.8 °F 62.6 °F 54% 29.87 in 10.0 mi NNW 13.8 mph 19.6 mph N/A   Partly Cloudy
2:55 PM 80.6 °F 81.8 °F 62.6 °F 54% 29.88 in 10.0 mi North 12.7 mph 17.3 mph N/A   Partly Cloudy
3:15 PM 80.6 °F 81.8 °F 62.6 °F 54% 29.88 in 10.0 mi North 15.0 mph 19.6 mph N/A   Clear
3:35 PM 82.4 °F 83.4 °F 62.6 °F 51% 29.88 in 10.0 mi North 11.5 mph 18.4 mph N/A   Clear
3:55 PM 80.6 °F 81.8 °F 62.6 °F 54% 29.88 in 10.0 mi NNW 9.2 mph 17.3 mph N/A   Partly Cloudy
4:15 PM 80.6 °F 81.8 °F 62.6 °F 54% 29.87 in 10.0 mi North 15.0 mph - N/A   Mostly Cloudy
4:35 PM 78.8 °F - 62.6 °F 57% 29.88 in 10.0 mi NNW 19.6 mph 24.2 mph N/A   Mostly Cloudy
4:55 PM 77.0 °F - 62.6 °F 61% 29.88 in 10.0 mi North 17.3 mph 24.2 mph N/A   Mostly Cloudy
5:15 PM 75.2 °F - 60.8 °F 61% 29.89 in 10.0 mi North 16.1 mph - N/A   Scattered Clouds
5:35 PM 75.2 °F - 60.8 °F 61% 29.88 in 10.0 mi North 17.3 mph - N/A   Partly Cloudy
5:55 PM 73.4 °F - 59.0 °F 61% 29.89 in 10.0 mi North 18.4 mph 23.0 mph N/A   Clear
6:15 PM 73.4 °F - 57.2 °F 57% 29.92 in 10.0 mi North 17.3 mph 23.0 mph N/A   Clear
6:35 PM 73.4 °F - 57.2 °F 57% 29.93 in 10.0 mi NNE 15.0 mph - N/A   Clear
6:55 PM 73.4 °F - 57.2 °F 57% 29.93 in 10.0 mi North 16.1 mph - N/A   Clear
7:15 PM 71.6 °F - 55.4 °F 57% 29.93 in 10.0 mi North 15.0 mph - N/A   Clear
7:35 PM 71.6 °F - 55.4 °F 57% 29.93 in 10.0 mi North 12.7 mph - N/A   Clear
7:55 PM 69.8 °F - 55.4 °F 60% 29.95 in 10.0 mi North 12.7 mph - N/A   Partly Cloudy
8:15 PM 69.8 °F - 55.4 °F 60% 29.97 in 10.0 mi North 8.1 mph - N/A   Clear
8:35 PM 68.0 °F - 53.6 °F 60% 29.99 in 10.0 mi North 9.2 mph - N/A   Clear
8:55 PM 66.2 °F - 55.4 °F 68% 30.00 in 10.0 mi NNE 8.1 mph - N/A   Clear
9:15 PM 66.2 °F - 55.4 °F 68% 30.02 in 10.0 mi NE 6.9 mph - N/A   Mostly Cloudy
9:35 PM 66.2 °F - 55.4 °F 68% 30.04 in 10.0 mi NE 6.9 mph - N/A   Overcast
9:55 PM 66.2 °F - 55.4 °F 68% 30.04 in 10.0 mi NNE 8.1 mph - N/A   Overcast
10:15 PM 66.2 °F - 53.6 °F 64% 30.04 in 7.0 mi NNE 9.2 mph - N/A   Overcast
10:35 PM 66.2 °F - 53.6 °F 64% 30.05 in 7.0 mi NNE 9.2 mph - N/A   Overcast
10:55 PM 66.2 °F - 53.6 °F 64% 30.06 in 10.0 mi NNE 9.2 mph - N/A   Overcast
11:15 PM 64.4 °F - 53.6 °F 68% 30.08 in 10.0 mi NNE 10.4 mph - N/A   Scattered Clouds
11:35 PM 64.4 °F - 51.8 °F 64% 30.07 in 10.0 mi NNE 11.5 mph - N/A   Mostly Cloudy
11:55 PM 64.4 °F - 51.8 °F 64% 30.08 in 10.0 mi NNE 10.4 mph 16.1 mph N/A   Overcast